Date String (YYYY-MM-DD hh:mm:ss) UTC,Instrument flags,absolute air pressure of the measurement (hPa),sample flow rate (lpm),inlet stack bypass flow (lpm),air temperature of the measurement (°C),ambient temperature measured by the external sensor (°C),aerosol sample conditioner tube jacket temperature (°C),OPC LED temperature (°C),internal box temperature (°C),relative humidity of the measurement (%),span deviation,mass concentration of particles derived from Lorenz-Mie calculation of OPC scattering (μg/m³),mass concentration of particles derived from Lorenz-Mie calculation of OPC scattering (μg/m³),mass concentration of particles derived from Lorenz-Mie calculation of OPC scattering (μg/m³)
DateTimeUTC,F1_M11,P_M11,Q1_M11,Q2_M11,T1_M11,T2_M11,T3_M11,T4_M11,T5_M11,U1_M11,ZSPAN_M11,X0_M11,X2_M11,X1_M11
2024-03-01 02:00:00,SystemResetWarning,0823.6,5.00,000.00,025.3,024.3,000.0,033.7,027.0,04.5,0000.0,0008.06,0003.31,0002.02
2024-03-01 02:01:00,SystemResetWarning,0823.6,5.01,000.00,025.3,024.3,000.0,033.7,027.0,04.4,0000.0,0008.06,0003.31,0002.01
2024-03-01 02:02:00,SystemResetWarning,0823.6,5.01,000.00,025.2,024.3,000.0,033.7,027.0,04.5,0000.0,0008.14,0003.34,0001.99
2024-03-01 02:03:00,SystemResetWarning,0823.6,5.00,000.00,025.2,024.3,000.0,033.7,027.0,04.5,0000.0,0008.08,0003.34,0001.98
2024-03-01 02:04:00,SystemResetWarning,0823.6,4.99,000.00,025.2,024.3,000.0,033.6,027.0,04.5,0000.0,0008.35,0003.31,0001.97
2024-03-01 02:05:00,SystemResetWarning,0823.7,4.99,000.00,025.2,024.3,000.0,033.6,027.0,04.6,0000.0,0008.19,0003.28,0001.95
2024-03-01 02:06:00,SystemResetWarning,0823.7,5.00,000.00,025.2,024.3,000.0,033.6,027.0,04.6,0000.0,0007.94,0003.28,0001.93
2024-03-01 02:07:00,SystemResetWarning,0823.7,5.00,000.00,025.2,024.3,000.0,033.6,027.0,04.7,0000.0,0007.95,0003.28,0001.93
2024-03-01 02:08:00,SystemResetWarning,0823.7,5.01,000.00,025.2,024.2,000.0,033.6,027.0,04.8,0000.0,0007.84,0003.26,0001.93
2024-03-01 02:09:00,SystemResetWarning,0823.6,4.99,000.00,025.2,024.2,000.0,033.6,027.0,04.9,0000.0,0007.68,0003.22,0001.93
2024-03-01 02:10:00,SystemResetWarning,0823.6,5.00,000.00,025.2,024.2,000.0,033.6,027.0,05.0,0000.0,0007.64,0003.21,0001.94
2024-03-01 02:11:00,SystemResetWarning,0823.6,5.00,000.00,025.2,024.2,000.0,033.6,026.9,04.9,0000.0,0007.44,0003.24,0001.94
2024-03-01 02:12:00,SystemResetWarning,0823.5,5.00,000.00,025.2,024.2,000.0,033.6,026.9,04.9,0000.0,0007.41,0003.23,0001.95
2024-03-01 02:13:00,SystemResetWarning,0823.5,5.00,000.00,025.2,024.2,000.0,033.6,026.9,05.0,0000.0,0007.36,0003.22,0001.95
2024-03-01 02:14:00,SystemResetWarning,0823.6,5.00,000.00,025.2,024.2,000.0,033.6,026.9,04.6,0000.0,0007.10,0003.20,0001.95
2024-03-01 02:15:00,SystemResetWarning,0823.5,5.00,000.00,025.2,024.2,000.0,033.6,026.9,04.6,0000.0,0006.57,0003.22,0001.95
2024-03-01 02:16:00,SystemResetWarning,0823.5,5.01,000.00,025.2,024.2,000.0,033.6,026.9,04.8,0000.0,0006.22,0003.22,0001.96
2024-03-01 02:17:00,SystemResetWarning,0823.5,5.01,000.00,025.2,024.2,000.0,033.6,026.9,04.9,0000.0,0006.26,0003.21,0001.96
2024-03-01 02:18:00,SystemResetWarning,0823.6,5.00,000.00,025.2,024.2,000.0,033.6,027.0,05.0,0000.0,0007.31,0003.21,0001.95
2024-03-01 02:19:00,SystemResetWarning,0823.5,4.99,000.00,025.1,024.2,000.0,033.6,026.9,04.8,0000.0,0007.74,0003.23,0001.95
2024-03-01 02:20:00,SystemResetWarning,0823.5,4.99,000.00,025.1,024.2,000.0,033.6,027.0,04.6,0000.0,0007.82,0003.25,0001.93
2024-03-01 02:21:00,SystemResetWarning,0823.5,5.00,000.00,025.2,024.2,000.0,033.6,026.9,04.6,0000.0,0007.86,0003.23,0001.93
2024-03-01 02:22:00,SystemResetWarning,0823.5,5.01,000.00,025.1,024.2,000.0,033.6,026.9,05.1,0000.0,0007.83,0003.23,0001.92
2024-03-01 02:23:00,SystemResetWarning,0823.5,5.00,000.00,025.1,024.2,000.0,033.6,026.9,04.9,0000.0,0007.93,0003.25,0001.92
2024-03-01 02:24:00,SystemResetWarning,0823.4,5.01,000.00,025.1,024.2,000.0,033.6,026.9,05.0,0000.0,0008.03,0003.24,0001.92
2024-03-01 02:25:00,SystemResetWarning,0823.5,5.00,000.00,025.1,024.2,000.0,033.6,026.9,04.9,0000.0,0008.11,0003.25,0001.92
2024-03-01 02:26:00,SystemResetWarning,0823.5,4.99,000.00,025.1,024.2,000.0,033.6,026.9,05.0,0000.0,0008.56,0003.28,0001.93
2024-03-01 02:27:00,SystemResetWarning,0823.5,4.99,000.00,025.1,024.2,000.0,033.6,026.9,05.1,0000.0,0008.77,0003.31,0001.94
2024-03-01 02:28:00,SystemResetWarning,0823.4,5.00,000.00,025.1,024.2,000.0,033.6,026.9,05.1,0000.0,0008.63,0003.33,0001.95
2024-03-01 02:29:00,SystemResetWarning,0823.4,5.00,000.00,025.1,024.2,000.0,033.6,026.9,04.9,0000.0,0007.90,0003.28,0001.95
2024-03-01 02:30:00,SystemResetWarning,0823.4,5.00,000.00,025.1,024.1,000.0,033.6,026.9,05.0,0000.0,0007.40,0003.23,0001.94
2024-03-01 02:31:00,SystemResetWarning,0823.4,5.00,000.00,025.1,024.1,000.0,033.6,026.9,04.8,0000.0,0007.38,0003.22,0001.95
2024-03-01 02:32:00,SystemResetWarning,0823.4,5.00,000.00,025.1,024.1,000.0,033.6,026.9,04.6,0000.0,0007.40,0003.24,0001.96
2024-03-01 02:33:00,SystemResetWarning,0823.3,5.01,000.00,025.1,024.1,000.0,033.6,026.9,04.7,0000.0,0007.46,0003.23,0001.96
2024-03-01 02:34:00,SystemResetWarning,0823.3,4.99,000.00,025.1,024.1,000.0,033.5,026.8,04.7,0000.0,0007.45,0003.22,0001.97
2024-03-01 02:35:00,SystemResetWarning,0823.4,4.99,000.00,025.1,024.2,000.0,033.5,026.9,05.1,0000.0,0007.35,0003.23,0001.98
2024-03-01 02:36:00,SystemResetWarning,0823.4,5.00,000.00,025.1,024.2,000.0,033.5,026.9,05.4,0000.0,0007.38,0003.25,0001.99
2024-03-01 02:37:00,SystemResetWarning,0823.4,5.01,000.00,025.1,024.1,000.0,033.5,026.9,05.5,0000.0,0007.28,0003.28,0001.99
2024-03-01 02:38:00,SystemResetWarning,0823.4,5.01,000.00,025.1,024.1,000.0,033.5,026.9,05.4,0000.0,0007.32,0003.28,0002.00
2024-03-01 02:39:00,SystemResetWarning,0823.4,5.00,000.00,025.1,024.1,000.0,033.5,026.8,05.3,0000.0,0007.68,0003.29,0002.00
2024-03-01 02:40:00,SystemResetWarning,0823.4,4.99,000.00,025.1,024.1,000.0,033.5,026.8,05.1,0000.0,0007.89,0003.33,0002.00
2024-03-01 02:41:00,SystemResetWarning,0823.4,5.00,000.00,025.0,024.1,000.0,033.5,026.8,05.1,0000.0,0008.04,0003.39,0002.02
2024-03-01 02:42:00,SystemResetWarning,0823.4,5.00,000.00,025.0,024.1,000.0,033.5,026.8,05.2,0000.0,0008.14,0003.40,0002.02
2024-03-01 02:43:00,SystemResetWarning,0823.4,5.00,000.00,025.0,024.1,000.0,033.5,026.8,04.8,0000.0,0008.57,0003.41,0002.01
2024-03-01 02:44:00,SystemResetWarning,0823.4,5.00,000.00,025.0,024.0,000.0,033.5,026.8,04.8,0000.0,0008.90,0003.42,0002.01
2024-03-01 02:45:00,SystemResetWarning,0823.4,5.00,000.00,025.0,024.0,000.0,033.5,026.8,04.8,0000.0,0008.86,0003.41,0002.00
2024-03-01 02:46:00,SystemResetWarning,0823.4,5.01,000.00,025.0,024.0,000.0,033.5,026.8,04.8,0000.0,0008.92,0003.41,0001.98
2024-03-01 02:47:00,SystemResetWarning,0823.3,5.01,000.00,025.0,024.0,000.0,033.5,026.7,04.8,0000.0,0009.32,0003.44,0001.96
2024-03-01 02:48:00,SystemResetWarning,0823.3,5.00,000.00,025.0,024.0,000.0,033.5,026.7,04.7,0000.0,0008.98,0003.37,0001.94
2024-03-01 02:49:00,SystemResetWarning,0823.3,4.99,000.00,024.9,024.0,000.0,033.5,026.7,04.8,0000.0,0008.92,0003.39,0001.93
2024-03-01 02:50:00,SystemResetWarning,0823.4,5.00,000.00,024.9,024.0,000.0,033.4,026.7,05.3,0000.0,0008.60,0003.36,0001.93
2024-03-01 02:51:00,SystemResetWarning,0823.3,5.01,000.00,024.9,024.0,000.0,033.4,026.7,05.6,0000.0,0008.54,0003.37,0001.96
2024-03-01 02:52:00,SystemResetWarning,0823.3,5.01,000.00,024.9,024.0,000.0,033.4,026.7,05.6,0000.0,0008.43,0003.33,0001.96
2024-03-01 02:53:00,SystemResetWarning,0823.3,5.00,000.00,024.9,023.9,000.0,033.4,026.7,05.6,0000.0,0008.38,0003.33,0001.95
2024-03-01 02:54:00,SystemResetWarning,0823.4,4.99,000.00,024.9,023.9,000.0,033.4,026.7,05.6,0000.0,0007.80,0003.29,0001.95
2024-03-01 02:55:00,SystemResetWarning,0823.4,4.99,000.00,024.9,023.9,000.0,033.4,026.7,05.5,0000.0,0007.50,0003.26,0001.95
2024-03-01 02:56:00,SystemResetWarning,0823.4,5.01,000.00,024.9,023.9,000.0,033.4,026.7,05.6,0000.0,0007.42,0003.26,0001.96
2024-03-01 02:57:00,SystemResetWarning,0823.4,5.01,000.00,024.9,023.9,000.0,033.4,026.7,05.5,0000.0,0007.34,0003.26,0001.97
2024-03-01 02:58:00,SystemResetWarning,0823.4,5.00,000.00,024.9,023.9,000.0,033.4,026.7,05.3,0000.0,0006.67,0003.22,0001.99
2024-03-01 02:59:00,SystemResetWarning,0823.4,4.99,000.00,024.9,023.9,000.0,033.4,026.7,05.2,0000.0,0007.04,0003.26,0002.01
